Theta_e
314 315 316 317 322 324 324 325 322 320 319 313 312 314 316 322 323 322 321 322 324 325 326 327 329 328 328 328 328 326 328 331 332 334 337 340 339 340 340 340 340 339 340 340 339 338 337 336 333 329 323 321 327 334 335 334 333 332 333 333 335 336 336 337 337 337 337 337 336 335 334 335 336 336 335 334 333 332 332 332 332 331 331 331 331 331 331 331 331 331 331 331 331 332 332 332 331
319 318 319 320 323 323 323 325 320 316 314 310 312 316 317 321 321 320 321 323 325 324 325 328 329 328 326 324 325 327 329 332 334 337 338 339 339 340 340 339 338 337 340 341 340 339 338 335 329 325 320 318 324 333 334 334 334 333 333 333 334 334 335 337 337 336 336 336 335 335 334 334 335 335 335 334 333 332 332 331 332 332 331 331 331 331 331 331 331 331 331 331 331 330 330 331 330
322 322 322 323 323 324 324 323 318 312 311 309 311 318 319 319 320 321 323 324 326 325 327 328 329 329 325 325 326 326 330 333 336 335 337 339 338 339 340 339 338 337 340 341 341 340 339 335 327 322 319 317 323 332 333 334 333 332 333 332 333 334 335 336 336 335 335 335 334 334 333 332 334 334 334 334 332 331 331 331 332 333 332 331 331 331 331 331 331 331 331 330 330 330 330 330 330
320 322 323 323 323 323 324 322 319 314 311 309 310 317 318 319 321 323 324 324 325 326 327 327 328 328 326 327 325 325 332 335 337 335 337 339 337 338 339 339 338 338 340 341 341 340 340 334 325 320 319 316 320 329 333 333 333 332 332 332 333 335 335 335 335 335 335 335 334 334 333 331 332 333 333 333 331 331 331 331 332 332 332 330 330 330 330 330 330 330 330 330 330 330 330 330 330
320 321 320 323 325 323 324 322 321 316 312 312 312 316 318 319 321 323 324 323 323 325 326 326 328 328 327 327 325 329 333 335 338 336 337 339 338 338 338 339 339 339 340 342 341 341 339 331 323 320 319 317 318 326 332 333 333 333 332 332 333 334 334 334 335 336 336 334 334 333 332 330 331 332 332 332 330 330 330 331 332 333 332 331 330 330 330 330 329 330 330 329 329 329 329 329 329
321 321 319 322 325 323 322 318 316 315 316 318 316 317 319 319 321 323 324 322 322 323 324 326 327 327 327 328 328 332 335 335 338 337 338 340 338 338 338 338 339 340 340 341 341 341 338 328 323 320 318 317 320 326 332 332 332 333 332 332 333 334 334 334 336 336 335 334 333 331 329 329 330 332 331 330 329 329 330 331 332 332 332 332 332 331 331 330 329 329 330 329 328 328 328 328 329
322 322 321 321 323 323 321 316 314 316 319 319 317 318 319 319 321 322 323 322 320 321 322 325 325 324 327 329 330 334 335 337 338 338 340 339 338 339 338 338 339 340 341 341 341 341 337 328 323 321 317 315 319 326 331 331 332 333 332 332 332 333 334 334 334 333 333 332 332 330 328 329 330 330 330 329 329 329 330 331 332 332 332 332 333 332 331 329 328 329 329 329 328 328 328 327 328
323 322 322 322 323 322 320 318 319 319 318 318 318 318 319 320 322 322 321 320 320 321 322 324 324 323 326 327 332 336 335 336 338 338 340 339 339 338 337 338 339 341 341 341 341 340 336 328 323 321 318 315 317 323 328 331 332 333 332 332 332 333 333 331 331 331 332 330 329 329 328 329 329 328 328 328 329 329 330 331 332 332 332 331 332 332 331 329 328 329 329 329 328 328 328 328 327
322 322 322 323 323 321 318 319 320 320 319 317 318 317 319 320 321 321 320 320 320 321 322 324 323 322 323 323 333 337 335 336 337 338 339 338 339 338 337 337 339 340 340 341 341 339 336 330 324 322 319 316 318 320 323 328 331 332 332 332 332 333 333 330 329 331 330 329 329 329 328 327 328 328 328 328 329 329 329 331 331 331 331 331 332 332 331 329 327 329 329 328 328 328 329 328 327
320 321 321 323 321 317 315 316 318 320 319 318 318 317 318 320 321 321 319 320 319 320 322 323 322 320 321 324 333 336 337 336 336 339 338 338 338 338 337 336 339 340 340 341 341 340 337 333 327 323 321 318 318 319 320 324 328 331 332 332 332 333 333 331 330 330 329 329 331 331 329 327 327 328 328 327 328 329 329 330 330 330 331 331 331 331 330 329 327 328 327 327 327 328 328 328 327
321 320 322 322 318 314 313 315 317 320 319 317 318 317 318 319 321 321 319 319 318 321 322 321 320 319 320 325 334 337 338 336 336 338 337 338 337 337 336 335 338 339 340 340 341 341 338 335 331 325 322 320 318 317 319 322 325 328 330 331 332 332 332 331 330 329 329 330 332 332 331 328 325 326 328 328 328 328 328 329 329 330 331 331 330 330 329 328 326 326 326 326 327 328 328 328 326
322 321 322 319 316 316 315 316 317 320 319 317 318 317 318 319 321 320 319 318 318 320 320 321 320 320 320 324 334 338 337 336 337 337 337 337 336 336 335 336 337 338 340 340 341 341 339 337 334 328 324 322 319 317 317 318 320 323 326 328 331 332 331 331 330 329 330 330 331 332 331 329 325 325 328 329 329 327 326 328 329 330 331 331 331 330 329 327 325 326 327 326 327 327 327 327 326
323 322 321 319 319 320 318 317 319 320 318 318 318 317 317 319 321 319 318 318 317 318 319 320 320 321 321 325 334 337 337 337 337 336 336 336 336 336 335 336 337 339 340 340 340 340 341 338 336 332 326 324 321 318 316 315 316 318 320 323 329 331 329 330 329 328 329 329 331 332 331 329 326 323 327 330 330 329 326 326 328 330 330 331 331 330 329 327 324 326 327 326 327 327 327 326 325
323 323 322 320 322 321 318 318 318 317 316 319 318 316 318 318 319 319 318 317 317 318 319 320 320 320 320 324 330 333 336 337 337 336 337 336 336 336 336 336 337 339 339 340 340 340 341 339 338 335 328 327 324 321 319 315 315 315 315 319 326 328 327 329 328 326 326 327 329 330 329 327 325 324 325 328 330 330 327 325 327 329 330 330 331 330 329 327 324 325 327 327 327 327 327 325 325
322 323 323 322 320 319 319 319 318 315 316 319 317 316 317 316 317 318 318 317 317 317 317 320 322 322 319 322 326 331 337 337 337 337 337 336 336 335 336 337 338 339 339 339 339 339 340 339 340 337 333 333 330 328 325 318 316 315 313 315 320 324 326 326 327 326 325 325 325 326 324 322 323 324 324 326 328 329 327 325 325 327 329 329 330 329 329 326 322 324 326 326 327 327 326 325 325
322 322 323 321 318 317 317 320 319 316 317 319 317 317 317 316 316 317 316 315 317 316 317 320 321 321 319 324 332 336 338 337 337 337 337 336 336 336 336 337 337 338 339 339 338 339 340 339 340 339 337 336 335 335 332 324 318 317 314 314 316 319 323 324 325 326 326 325 324 323 322 321 321 322 323 324 327 327 326 326 324 325 325 327 329 328 327 325 321 322 325 325 326 326 326 325 325
321 323 322 319 317 317 317 319 317 316 318 318 316 317 317 316 315 314 313 314 317 316 318 320 320 321 322 327 336 340 338 337 337 337 337 337 336 336 336 337 337 338 338 339 338 338 339 339 339 339 339 337 336 335 335 331 323 319 317 315 314 315 319 322 324 325 327 326 323 323 325 326 325 325 324 321 324 325 325 324 324 324 323 323 326 325 325 323 321 322 324 325 325 325 325 325 325
320 323 320 317 319 319 318 319 317 317 319 317 316 317 318 317 315 314 314 314 317 316 317 320 319 322 326 326 334 339 337 337 337 336 337 336 336 335 335 336 337 337 338 338 338 338 338 339 339 339 339 337 337 336 336 335 327 323 322 318 314 314 315 318 323 324 326 326 323 326 329 330 329 328 325 322 323 323 324 323 322 323 322 321 321 323 324 323 322 322 323 324 324 325 325 326 326
320 322 320 319 321 319 318 318 316 317 318 317 317 317 318 317 316 315 315 315 315 315 316 318 318 322 325 327 333 338 337 338 337 336 337 336 336 335 335 336 336 336 337 337 337 338 338 338 338 338 339 337 337 337 336 336 331 329 330 326 320 318 314 316 325 325 327 328 325 328 330 329 330 329 325 323 323 319 320 321 321 321 321 321 319 320 322 323 323 321 322 324 324 325 326 326 326
320 323 321 321 321 318 317 317 316 316 317 317 317 317 317 317 316 315 315 316 314 315 316 316 318 321 324 328 335 337 336 337 337 337 337 336 336 335 336 335 336 336 336 336 336 337 337 338 338 338 339 338 337 337 337 336 334 332 333 332 328 327 321 320 328 328 329 331 328 330 331 329 329 329 322 319 321 319 317 317 318 319 321 322 319 320 321 322 323 321 322 323 324 325 325 326 325
319 321 320 320 320 317 316 316 315 314 316 317 316 316 316 315 315 315 315 316 315 315 316 316 316 319 325 329 335 337 337 337 337 338 337 337 337 336 337 336 336 336 336 336 336 337 337 337 338 338 338 338 337 337 337 336 335 334 333 333 331 332 329 327 330 330 330 328 326 330 330 326 327 329 322 320 324 325 322 319 319 321 324 323 320 323 324 322 323 323 323 323 324 325 325 325 325
319 318 317 317 318 317 315 314 313 313 315 316 316 316 316 315 314 315 315 315 315 315 315 316 315 319 326 330 335 337 337 337 337 338 337 337 338 337 337 337 337 337 336 336 336 336 336 337 337 338 338 338 338 337 337 336 336 335 334 333 332 332 331 331 331 330 330 325 323 329 329 325 326 329 326 325 327 327 327 325 325 325 326 323 321 324 325 323 324 323 323 323 324 324 324 325 324
318 317 314 315 316 316 314 313 312 312 315 316 316 316 315 315 315 315 315 316 315 314 314 313 315 322 327 332 336 336 337 338 337 338 338 338 338 338 337 337 337 337 336 336 336 336 336 337 337 337 338 338 338 337 337 337 336 336 335 334 333 332 331 331 331 330 330 326 324 328 327 327 328 328 328 327 327 327 327 327 327 326 326 324 322 324 325 323 324 324 324 324 324 324 324 324 324
317 317 315 314 313 314 313 312 311 311 315 315 315 315 315 315 315 314 314 316 314 312 315 312 315 324 328 331 334 335 337 338 338 338 338 339 338 338 338 338 338 337 337 336 336 336 336 336 336 337 338 337 338 337 337 337 336 336 335 335 333 333 332 331 331 331 331 329 325 326 326 328 328 328 328 327 327 326 326 326 326 325 325 324 323 323 324 323 323 324 324 324 324 324 324 324 323
317 317 315 314 312 312 310 311 311 312 313 313 314 315 315 314 313 313 314 315 313 312 315 315 317 323 326 328 331 333 336 337 337 338 339 339 339 339 339 338 338 337 337 336 336 336 336 336 336 336 337 337 337 337 337 337 336 336 336 335 334 333 332 332 332 331 331 330 327 325 325 328 328 328 328 328 327 326 327 326 325 325 324 324 322 322 323 322 323 323 323 323 323 323 323 323 323
317 316 314 314 313 311 311 311 311 312 312 312 314 315 314 312 311 314 315 314 312 312 315 317 318 320 323 326 328 331 334 336 337 338 339 339 339 338 338 338 337 337 337 336 336 336 336 336 336 336 337 337 337 337 337 337 336 336 336 336 335 334 333 333 332 331 331 331 329 327 325 326 328 328 328 328 327 327 327 326 325 325 324 323 321 321 321 321 322 322 322 322 322 322 322 322 322
316 315 314 313 313 312 312 312 312 313 312 312 315 315 313 312 312 315 315 312 311 312 315 317 318 318 320 323 326 330 332 334 336 337 338 337 338 338 337 337 337 337 337 336 336 336 336 336 336 336 336 337 337 337 337 337 337 336 336 336 335 334 333 333 333 332 332 331 331 330 327 326 327 328 328 328 327 327 327 326 325 325 325 324 321 321 321 319 321 322 322 322 322 322 321 322 322
316 314 315 313 313 313 312 313 312 313 313 312 315 315 314 312 313 315 313 310 311 313 315 317 317 318 320 321 324 329 331 333 335 337 337 336 337 337 336 336 336 337 337 337 336 336 336 336 336 336 336 337 336 336 337 337 337 337 336 336 336 335 334 334 333 332 332 332 331 331 329 327 326 327 328 328 327 327 327 327 326 325 325 324 322 321 320 317 317 320 320 320 320 321 321 321 321
316 315 316 314 314 314 313 314 312 314 314 312 314 314 314 314 314 314 311 310 312 313 316 317 317 318 321 324 325 328 330 332 335 336 336 336 336 336 336 336 336 336 337 337 337 336 336 336 336 336 337 337 336 336 337 337 337 337 337 336 336 336 335 334 334 333 332 332 331 331 330 329 328 327 327 327 327 326 327 326 326 325 325 325 323 321 320 316 315 317 317 314 313 317 320 320 321
315 316 316 314 315 315 314 314 313 314 313 311 313 311 313 316 315 313 311 311 312 313 314 316 317 318 320 323 325 327 329 332 335 335 335 335 335 335 335 336 336 336 336 337 336 336 335 335 336 336 336 337 337 336 336 337 336 337 337 336 336 335 335 334 333 333 333 332 332 331 330 330 329 328 327 327 326 326 326 326 325 326 325 324 324 322 321 318 316 317 317 316 314 316 319 320 321
315 315 316 315 314 313 314 314 313 314 312 311 313 310 313 316 314 312 311 311 312 314 314 315 316 317 318 321 324 325 329 332 333 334 334 334 335 335 335 336 336 336 336 336 336 336 335 335 335 335 335 336 336 336 336 336 336 336 336 336 336 335 335 335 334 333 333 332 331 331 330 330 330 328 327 327 327 326 326 326 326 327 325 325 325 324 323 321 319 319 319 319 318 318 319 320 320
316 314 313 315 314 313 315 313 313 315 313 312 313 311 313 315 313 311 312 311 312 313 314 314 314 315 316 318 320 321 324 329 331 332 333 334 335 335 336 336 336 337 336 336 336 336 335 335 335 335 335 335 335 336 335 335 335 335 336 336 336 335 335 335 334 334 333 332 332 331 330 330 329 329 328 327 327 326 326 326 327 328 327 327 327 326 325 323 322 320 319 319 319 319 319 319 320
315 314 311 314 314 313 315 313 313 315 314 312 312 312 314 315 313 311 312 312 312 313 313 314 314 314 314 315 316 317 319 324 328 330 331 334 335 336 337 336 337 338 337 336 336 336 336 335 335 335 335 334 334 334 334 335 335 335 335 336 335 335 335 334 334 334 333 333 332 331 330 330 329 329 329 329 329 328 327 326 326 328 328 328 328 326 326 325 323 322 321 320 319 319 319 320 320
313 313 313 314 314 313 313 313 314 314 314 314 313 313 314 315 315 312 312 313 313 313 314 314 314 314 314 314 315 315 316 318 322 326 328 331 334 335 335 335 336 337 337 337 337 336 336 335 335 334 334 335 334 334 333 333 334 335 335 335 335 335 335 335 334 334 334 333 333 332 331 330 329 329 329 329 330 329 329 328 328 328 329 329 328 327 327 326 324 323 323 322 321 320 319 320 320
312 312 313 314 313 312 313 314 313 313 314 314 314 313 314 315 315 314 313 313 313 314 314 314 314 314 314 315 315 314 315 315 317 319 321 326 330 331 333 333 334 335 336 336 336 336 336 335 336 335 334 334 334 334 333 333 333 333 334 334 334 335 334 334 334 334 333 333 332 332 331 331 330 329 329 328 329 329 330 330 330 329 329 329 328 327 326 326 324 323 322 322 322 321 320 320 319
314 313 314 313 312 312 314 314 312 313 314 314 314 314 314 315 315 315 315 314 314 314 314 314 315 314 315 315 315 316 315 315 317 317 317 319 321 324 327 329 331 332 333 334 334 335 336 336 336 336 335 334 334 334 333 333 333 333 333 333 333 334 334 334 334 334 333 333 332 331 331 331 330 330 330 329 328 328 329 330 329 329 329 329 328 327 326 326 325 325 324 323 321 320 321 320 319
315 314 314 314 312 311 314 314 312 313 314 314 314 315 315 315 315 315 315 315 315 314 314 314 315 315 315 316 316 317 316 318 320 317 315 314 314 315 316 320 325 329 330 331 332 334 334 335 335 336 335 334 334 334 334 333 333 333 333 332 332 332 333 334 334 334 333 333 333 333 332 332 332 331 331 330 329 328 328 329 329 329 329 328 328 327 326 326 326 325 325 323 321 320 320 320 319
315 314 313 312 313 312 313 314 312 312 313 314 315 315 315 315 315 315 315 315 315 315 314 314 315 315 316 317 317 318 318 320 319 316 315 314 312 312 311 312 317 322 326 328 330 331 332 333 334 335 335 334 333 333 334 334 333 333 333 332 332 332 332 332 333 334 333 333 333 334 334 333 333 332 331 331 329 329 329 329 329 329 329 329 328 327 327 326 326 325 324 322 321 320 320 319 319
315 314 313 312 313 313 312 313 312 311 311 313 315 315 314 315 315 315 315 315 316 316 316 316 316 316 317 317 318 319 319 319 317 316 315 314 313 313 311 310 312 315 320 325 327 328 330 331 332 333 333 334 333 333 333 334 334 333 333 333 332 332 332 332 332 333 333 333 332 333 333 332 331 331 330 330 330 329 328 329 329 329 329 330 329 328 328 327 326 325 324 322 321 320 320 319 320
314 314 311 312 314 312 311 312 312 312 311 312 315 314 314 315 315 315 316 315 316 315 314 315 315 316 317 317 317 316 316 316 316 316 315 314 314 313 312 311 311 312 314 319 324 326 328 329 330 331 332 333 333 332 332 333 333 333 332 332 332 332 332 332 333 333 333 333 333 332 332 332 331 331 331 331 330 329 328 328 328 328 329 329 329 328 327 327 326 326 325 324 322 320 320 320 320
316 316 312 313 315 313 313 314 312 312 311 312 313 311 311 313 313 314 315 313 313 313 311 312 313 313 314 313 314 313 312 313 313 314 315 314 313 312 312 312 311 311 311 314 318 323 325 327 328 329 330 331 332 332 331 331 332 332 332 331 332 332 332 333 333 332 333 333 332 331 332 332 332 332 332 332 331 331 330 330 329 328 328 328 327 327 326 326 326 326 325 324 323 321 320 320 320
314 317 315 314 314 314 315 315 312 311 312 313 313 309 308 312 314 314 314 312 312 312 311 312 313 314 314 314 315 315 315 315 314 314 314 313 312 312 313 312 311 310 311 311 313 317 320 322 325 327 328 329 330 331 330 330 330 330 331 331 331 331 331 332 331 331 331 331 331 330 331 331 332 332 331 331 331 331 331 330 329 329 329 328 327 326 325 325 324 324 324 324 323 322 321 320 319
311 315 316 313 314 315 315 315 313 311 311 311 312 309 308 311 313 314 313 312 313 312 312 314 314 315 316 316 317 318 317 316 315 314 312 313 313 313 314 314 313 312 312 310 309 311 314 317 321 324 326 327 328 329 329 329 328 328 330 330 330 330 330 330 330 330 330 330 330 330 330 331 331 331 331 331 331 331 331 330 330 329 329 329 328 327 326 326 325 324 324 324 324 322 320 319 319
313 316 316 312 314 316 315 315 313 313 313 311 312 313 310 309 312 314 313 312 312 313 313 315 315 315 315 316 316 317 317 316 317 316 315 315 316 316 316 316 314 314 312 309 307 307 309 313 318 321 322 324 326 327 328 327 326 327 328 329 329 329 329 329 329 329 329 328 329 329 329 330 330 330 331 331 331 331 330 330 331 330 330 330 329 328 327 327 326 325 324 324 324 323 321 320 320
314 315 316 315 316 316 316 316 313 315 314 311 313 315 310 309 311 313 312 312 312 312 314 316 315 315 315 315 315 315 315 315 316 316 316 317 317 316 315 315 313 312 311 309 308 308 309 313 317 319 320 323 325 325 325 326 325 326 327 327 328 328 328 328 328 328 328 328 329 328 328 328 328 329 329 329 329 329 329 330 330 330 329 329 329 328 327 326 326 325 324 323 323 322 321 320 319
312 313 316 317 317 317 317 316 314 314 312 311 314 314 310 308 310 312 312 311 312 313 314 315 315 315 315 315 315 314 315 315 314 315 316 316 315 315 314 314 314 312 311 311 310 308 311 315 318 320 322 323 324 323 324 325 325 325 326 326 327 327 327 327 327 328 328 328 327 327 327 326 326 327 327 327 327 327 327 327 328 328 328 329 329 328 328 327 326 326 325 324 323 322 321 320 319
313 315 316 316 316 316 315 314 313 312 311 312 313 313 311 308 308 312 313 311 313 314 314 314 314 314 314 314 314 314 314 315 315 314 315 315 314 314 314 314 315 314 315 316 313 311 313 317 320 322 322 322 323 323 323 324 324 324 325 325 326 326 326 326 326 326 326 325 325 325 325 325 325 325 325 325 325 326 326 326 327 327 327 327 328 328 328 327 327 327 326 326 324 322 322 321 321
315 317 315 314 314 313 313 312 312 312 312 311 310 311 312 309 308 311 312 311 313 314 314 314 314 314 314 314 314 314 314 314 315 315 315 315 315 316 316 316 316 316 317 318 318 317 317 318 320 320 320 320 321 322 322 323 324 324 324 325 325 325 325 325 325 325 325 324 324 324 323 323 323 323 323 323 323 324 324 325 325 325 325 326 326 327 327 327 327 326 326 325 324 324 323 322 321
316 316 313 313 313 314 314 313 312 312 311 309 308 311 312 310 310 311 311 311 312 314 314 314 314 314 314 314 314 314 314 315 315 316 316 317 317 317 316 316 316 316 316 317 318 319 319 320 321 320 320 321 321 322 322 322 323 323 323 324 324 324 324 324 324 323 323 323 323 323 322 322 322 322 322 321 321 321 321 322 322 323 324 324 324 325 325 325 325 325 325 325 325 324 323 322 321
315 314 312 311 313 314 315 314 312 312 310 308 308 311 311 309 310 313 312 312 312 312 312 312 313 314 314 314 314 314 315 316 316 316 316 317 317 317 316 316 315 315 315 315 315 317 318 320 319 318 318 318 319 320 320 321 321 321 321 322 322 321 321 322 321 321 321 321 321 321 321 321 321 320 320 320 320 320 320 320 321 321 321 322 322 322 322 323 323 324 325 325 325 325 324 323 322
315 316 314 312 312 313 313 313 313 313 311 309 308 310 310 309 310 311 310 310 310 309 309 310 311 312 313 313 314 314 314 315 316 316 315 315 315 315 315 315 314 314 314 314 314 315 315 316 315 314 314 314 314 314 315 315 315 315 316 316 316 316 317 317 317 317 317 317 318 318 319 319 319 319 319 318 318 319 319 319 319 319 319 319 319 320 320 321 321 322 322 323 323 323 323 323 322
315 317 316 313 312 312 311 311 311 311 312 310 309 310 311 311 311 310 309 309 309 308 308 309 310 311 312 313 314 314 314 314 315 314 313 314 314 314 313 313 313 312 311 311 312 312 312 312 312 312 311 311 311 311 311 312 312 311 311 311 311 312 312 312 313 313 313 312 313 313 315 316 317 317 317 317 317 317 317 317 317 317 317 317 318 318 318 319 319 319 319 320 320 320 321 321 321
314 314 314 312 313 312 310 309 309 308 310 311 311 310 310 311 311 311 310 309 309 308 308 309 311 312 313 315 315 314 314 314 315 314 313 313 313 312 312 312 311 310 309 309 309 310 310 310 310 310 310 310 310 310 310 310 311 310 310 310 311 310 310 310 311 311 310 311 311 311 313 314 314 314 314 314 314 314 314 314 314 315 315 316 316 316 316 317 317 317 318 318 318 318 318 319 319
314 313 314 311 311 312 309 309 310 309 310 310 310 310 309 308 309 311 310 310 310 309 308 310 312 313 315 316 315 315 315 314 313 313 312 313 312 311 310 309 309 308 307 307 308 308 309 309 308 309 309 309 309 310 310 310 310 310 310 310 310 310 310 310 310 310 310 310 310 311 312 312 312 312 311 311 311 311 311 311 311 312 312 313 314 314 315 315 315 315 316 316 316 316 316 316 316
312 312 314 312 311 311 309 310 311 311 311 310 309 308 308 308 309 311 311 311 311 310 310 310 312 314 315 315 315 314 314 313 313 312 312 312 311 310 310 309 308 308 307 306 307 307 308 308 308 308 309 309 309 309 309 309 309 309 309 309 309 309 309 309 309 309 309 309 308 309 309 310 310 309 309 309 309 309 309 310 310 310 311 311 311 311 312 312 313 313 313 313 313 314 314 314 314
310 311 312 312 313 311 310 310 310 310 311 310 309 309 308 310 311 311 311 312 311 311 310 311 313 314 315 315 314 314 314 314 313 312 311 311 310 309 308 308 308 307 307 306 306 307 307 307 307 308 308 308 309 309 309 309 309 309 308 308 308 308 308 308 308 308 308 307 307 307 307 307 307 308 308 308 308 308 308 308 308 309 309 309 309 309 309 310 310 310 310 310 310 311 311 311 311
310 311 311 311 312 311 311 311 309 310 310 309 311 310 308 310 312 312 312 312 313 312 311 312 313 314 315 314 314 314 314 314 313 312 311 310 309 308 307 307 307 306 306 306 306 305 305 305 306 306 307 307 308 308 308 308 308 308 307 307 307 307 307 307 307 307 307 307 307 307 307 307 307 307 307 307 307 307 307 307 307 307 307 307 308 308 308 308 308 307 307 308 308 308 308 308 308
313 312 312 312 312 311 312 313 310 309 309 309 310 310 309 310 310 311 311 310 312 313 312 313 314 314 315 314 314 315 314 313 312 311 310 310 309 308 307 307 307 307 306 306 305 305 304 304 304 305 305 306 306 306 306 307 307 307 306 306 306 306 306 306 306 306 307 307 307 307 306 307 306 306 306 306 306 306 306 306 306 306 306 306 306 306 306 306 306 306 306 306 306 306 306 306 306
Wind_Speed
1 2 2 2 2 3 5 5 3 3 3 2 3 2 5 4 3 5 6 5 4 5 4 3 4 2 1 5 5 5 8 8 6 2 3 6 13 13 12 15 16 16 15 13 11 10 9 7 6 5 6 7 10 12 11 10 11 12 11 11 10 10 10 10 11 10 11 11 11 11 11 12 12 12 13 14 15 15 15 14 14 16 16 16 17 16 16 16 15 15 15 15 15 15 15 15 14
0 1 2 1 3 5 2 2 4 3 3 2 4 2 7 6 4 5 7 5 5 7 4 3 3 2 2 4 3 2 7 9 6 6 7 13 15 12 13 16 16 15 14 12 11 10 9 5 6 6 6 7 10 14 12 11 10 11 11 11 10 10 10 9 10 10 11 11 10 11 11 12 12 12 13 14 14 15 14 13 15 16 16 16 16 15 15 15 15 15 16 15 15 15 14 14 14
2 3 3 3 4 5 2 3 5 3 4 3 5 4 6 6 5 5 7 7 8 8 5 4 3 2 3 3 2 3 5 7 7 10 9 14 13 10 14 15 15 14 13 13 11 10 9 6 6 7 7 7 11 15 13 11 10 10 11 11 10 10 10 9 10 10 10 10 11 11 11 11 11 12 12 13 14 14 13 13 14 15 15 15 14 14 15 14 14 15 15 14 14 15 14 14 13
2 4 5 4 4 5 4 4 4 3 3 2 5 6 6 5 6 8 10 9 8 7 5 4 3 1 4 3 4 2 6 6 7 9 8 11 12 14 16 15 15 13 13 12 11 10 9 7 7 8 7 7 10 13 14 13 11 11 11 11 11 9 9 8 9 10 10 11 11 12 11 11 11 12 12 12 13 13 13 12 13 14 14 14 13 14 14 14 14 14 14 14 14 14 13 13 13
1 4 5 5 3 2 3 2 3 4 1 2 4 7 7 5 8 10 9 7 6 4 4 5 2 3 2 4 4 2 6 6 6 8 10 10 15 18 16 15 14 13 13 12 12 11 9 8 8 9 8 8 10 12 13 14 12 11 11 11 10 8 8 7 9 11 12 11 11 11 10 9 11 11 11 12 12 12 12 12 12 13 13 14 14 14 13 13 13 13 13 13 13 13 13 12 12
2 4 4 5 3 1 3 3 4 3 3 4 3 7 7 6 9 10 9 8 5 3 2 4 1 2 3 2 2 4 5 5 6 8 10 12 16 18 16 16 13 13 13 12 12 11 10 9 9 9 7 8 11 13 14 14 12 10 10 11 10 9 9 9 10 11 11 12 11 10 9 10 12 12 12 12 12 12 11 11 12 12 13 13 13 13 12 12 12 12 12 12 12 12 12 12 12
4 4 3 4 2 1 5 4 4 3 4 5 4 6 8 8 9 11 10 7 5 3 2 2 1 2 2 4 2 5 5 4 6 7 10 14 17 18 16 15 13 14 13 12 12 11 10 10 10 9 7 8 11 13 13 13 13 10 9 11 11 10 9 9 10 10 10 11 11 10 11 12 13 12 12 12 11 11 11 11 12 12 11 11 11 12 12 12 12 12 12 12 12 12 11 11 11
4 3 1 3 4 3 5 4 2 1 4 4 4 3 6 9 9 10 9 6 5 5 4 3 2 4 2 3 1 6 5 4 5 8 13 16 18 17 16 14 14 14 13 13 12 11 11 10 10 9 8 8 11 12 12 13 13 11 11 11 11 9 8 7 7 9 9 10 10 10 12 14 12 12 12 11 11 11 11 11 12 11 10 10 11 12 11 12 12 12 11 11 11 11 11 10 10
4 3 1 3 4 4 5 4 2 2 4 4 4 3 3 7 9 9 8 6 5 5 6 6 4 2 3 4 3 7 6 5 6 10 13 15 17 16 15 14 14 13 13 13 12 11 11 11 10 9 8 8 10 10 11 12 13 13 12 11 11 9 7 6 7 9 8 9 9 9 12 14 12 12 11 10 10 11 11 11 11 10 10 10 11 11 11 10 11 11 10 10 10 10 10 9 8
5 3 3 4 4 4 5 4 2 3 5 4 5 5 5 7 7 8 7 6 7 6 5 4 3 3 0 3 5 6 6 7 9 12 13 15 16 14 13 13 14 13 13 12 12 12 11 11 10 8 7 7 9 10 10 11 13 13 12 12 11 10 8 8 9 9 8 8 9 9 12 12 12 12 10 9 10 10 11 10 10 10 9 9 10 10 10 9 9 9 9 9 9 9 9 8 7
4 4 3 4 4 5 5 4 4 4 6 4 5 6 6 7 6 7 7 6 6 5 6 4 4 3 2 2 4 6 8 9 11 12 13 14 14 13 13 13 13 13 12 12 12 12 10 10 10 8 7 7 8 9 10 11 12 13 13 13 11 11 10 9 9 9 8 7 8 10 11 11 11 11 10 9 9 9 10 11 10 9 9 9 9 8 8 8 8 8 8 8 8 8 7 6 6
4 5 4 5 6 4 2 2 4 5 5 6 6 6 5 7 6 7 8 7 7 5 7 7 1 1 4 3 4 8 11 10 12 13 13 13 13 12 13 12 13 13 11 12 12 12 10 10 10 8 7 7 7 8 9 10 10 11 12 12 12 11 10 9 9 9 8 6 7 9 10 10 11 11 10 10 9 6 7 10 9 8 8 8 8 7 7 7 7 7 8 7 7 7 5 5 4
4 4 6 5 3 2 1 1 4 5 5 5 6 7 6 8 6 7 7 7 8 5 6 6 1 1 3 4 5 8 10 11 13 14 14 13 13 12 12 12 12 12 11 12 12 12 11 10 10 8 8 7 7 8 8 9 9 9 9 11 13 11 10 10 8 8 8 5 7 8 7 7 9 11 10 10 10 7 5 8 10 8 6 7 8 7 7 6 6 7 7 7 6 5 4 3 4
3 2 5 3 0 1 1 1 4 4 5 7 7 9 8 6 3 4 6 7 7 3 4 4 0 3 2 4 5 6 10 13 15 15 15 13 13 12 12 12 12 12 11 12 12 12 12 11 11 9 8 8 7 7 7 8 8 8 8 10 12 11 10 9 7 7 7 6 6 7 5 5 8 10 10 9 10 8 6 7 9 9 7 6 7 6 6 5 6 7 6 6 5 4 3 3 3
2 2 3 2 2 3 2 1 4 5 5 9 8 10 9 2 1 3 3 3 5 5 4 3 1 1 0 2 2 7 15 17 15 16 15 12 12 12 11 12 12 12 12 13 12 12 12 12 11 9 9 9 7 7 7 7 8 7 7 8 10 10 9 8 7 6 6 6 5 5 4 5 7 8 8 8 8 7 6 6 7 9 8 6 6 5 4 4 4 5 6 5 4 3 2 3 3
3 3 3 3 3 4 4 2 3 4 5 10 8 10 9 4 1 3 2 3 5 5 3 3 1 1 3 4 5 12 22 19 17 16 15 13 12 12 12 12 12 12 12 13 13 12 12 12 11 10 10 10 8 8 7 7 8 7 6 7 8 8 8 7 7 6 5 4 3 3 4 5 7 8 7 7 7 6 5 5 6 6 5 5 5 4 3 2 3 4 5 4 4 3 2 3 3
3 4 5 5 5 5 5 6 4 3 7 10 9 10 9 7 3 1 2 3 4 6 3 4 3 1 5 5 7 15 22 19 18 18 16 14 13 13 13 12 12 13 13 13 13 13 12 12 11 11 11 11 9 9 8 7 8 8 7 7 7 7 8 7 6 6 5 4 3 4 5 5 6 7 6 5 6 5 4 4 4 4 3 4 4 2 1 1 2 4 4 4 4 3 2 2 2
3 5 6 5 6 5 5 6 3 3 8 10 10 11 8 9 7 3 3 4 4 6 6 5 4 3 7 6 7 14 19 19 19 19 18 16 14 14 14 14 14 13 14 14 14 14 13 13 12 11 11 11 10 9 8 7 8 8 7 6 7 7 7 7 7 6 6 5 4 5 5 5 5 5 5 4 4 4 4 4 3 3 3 3 3 3 2 1 2 4 4 4 4 3 4 3 1
5 5 6 6 4 3 2 4 4 2 7 12 10 10 6 7 10 6 6 7 7 7 7 6 6 7 7 7 10 14 16 17 19 19 19 18 16 15 15 14 15 14 15 15 15 15 14 13 13 12 12 12 11 10 9 8 8 8 7 7 7 7 7 8 7 7 6 6 5 5 4 4 5 5 5 5 4 4 3 4 3 2 3 2 3 4 3 3 3 3 3 4 5 6 5 3 0
3 3 6 3 5 6 4 5 6 4 4 12 11 8 4 5 9 6 5 7 8 7 7 8 8 9 9 10 13 15 16 16 17 18 18 18 16 15 14 14 15 15 15 15 14 15 14 14 14 13 12 12 12 10 9 8 8 8 8 7 7 7 8 8 8 8 8 8 7 6 4 5 5 4 5 4 4 3 2 3 3 2 2 3 2 2 4 5 3 1 3 4 5 5 3 2 1
3 3 3 2 5 5 5 5 6 5 2 8 10 8 6 5 6 6 6 6 7 7 7 8 8 11 13 13 15 15 16 17 17 17 18 18 17 15 14 13 13 13 14 14 13 14 15 14 14 13 13 12 12 11 9 9 9 9 9 9 8 8 8 8 9 9 9 9 8 6 5 6 5 4 4 3 4 3 2 2 2 2 2 3 3 3 3 4 2 1 3 4 3 2 2 3 2
4 2 2 3 2 3 5 4 5 4 2 6 10 8 7 6 5 6 8 6 3 1 3 4 1 8 15 15 16 16 16 17 18 18 18 19 18 16 14 13 13 12 13 14 14 14 15 15 14 13 14 13 13 12 11 11 10 10 10 10 10 9 9 8 8 8 9 10 9 7 7 6 5 5 5 4 5 4 4 3 3 3 4 3 4 4 4 3 3 3 3 3 2 3 3 3 3
4 3 3 4 4 3 5 4 3 2 2 7 7 6 6 7 6 5 8 5 5 7 7 7 5 6 14 16 16 15 15 17 18 19 19 19 19 18 15 14 14 13 13 14 14 14 15 15 15 14 14 14 13 12 12 12 11 11 11 11 11 10 9 9 8 8 8 10 10 8 7 6 6 6 6 6 6 5 5 4 4 4 4 4 4 4 5 5 4 4 4 4 4 4 4 4 4
4 4 5 4 5 4 4 4 3 1 2 4 4 4 6 8 5 2 6 5 7 7 6 6 4 6 12 15 15 16 16 18 19 19 18 18 18 18 16 14 13 13 13 13 14 14 15 16 16 15 15 15 14 13 13 12 11 11 11 11 11 11 10 10 9 8 8 9 11 10 8 7 7 6 6 7 6 6 5 5 5 4 5 4 5 5 6 6 5 5 5 5 5 5 6 6 5
6 5 7 4 5 5 5 4 4 2 2 3 3 5 3 2 0 0 6 5 6 6 4 5 5 6 10 12 14 14 15 17 17 17 17 16 16 16 16 14 13 14 14 14 14 14 15 16 17 16 16 15 15 14 14 13 11 11 11 11 11 11 11 10 10 9 8 9 10 11 10 8 7 7 7 7 7 6 6 6 6 5 5 5 5 5 6 6 6 6 6 6 6 6 6 6 6
5 7 8 7 6 6 4 5 5 3 2 3 6 6 3 3 2 4 6 3 5 4 4 4 4 6 8 9 12 13 13 15 17 17 17 15 15 16 17 15 14 14 15 15 15 15 15 16 17 17 16 16 15 15 15 14 13 12 11 11 11 12 12 11 10 10 10 9 9 12 13 11 8 8 8 7 7 7 7 7 7 6 6 6 6 6 6 6 6 7 7 7 7 7 7 7 7
9 11 10 9 7 5 3 5 5 4 4 2 5 5 3 3 1 4 4 4 2 3 5 5 5 7 7 8 9 11 12 15 16 16 16 16 15 16 17 17 16 15 15 16 16 16 15 16 16 17 17 16 16 16 15 15 14 13 12 10 10 11 12 11 12 12 11 11 11 11 14 14 11 8 8 8 8 8 8 8 7 7 7 7 7 7 7 7 7 7 8 8 7 7 7 7 8
13 14 11 9 7 7 4 6 6 3 4 1 2 4 4 4 3 3 5 4 1 4 5 6 6 7 7 8 8 9 11 12 14 15 16 17 16 16 17 18 18 16 16 16 17 16 16 16 17 17 17 17 18 17 15 14 14 13 12 11 11 10 11 12 13 13 12 12 12 12 12 14 14 11 10 10 10 9 9 9 8 8 8 8 8 8 9 9 8 8 9 10 9 8 8 8 9
12 12 9 9 7 7 4 5 4 2 3 0 2 3 5 7 7 4 7 3 2 2 4 5 6 6 6 7 7 7 9 11 13 14 16 18 17 17 18 18 19 18 16 16 16 17 16 17 17 17 18 18 19 18 16 14 14 14 13 12 11 11 12 12 13 14 13 13 14 14 12 12 15 14 12 13 13 11 10 10 10 10 9 9 9 10 11 11 10 10 11 13 13 11 10 10 10
10 8 6 8 6 6 5 4 4 2 3 1 2 3 6 10 9 7 7 3 3 4 5 5 6 6 6 6 6 6 8 11 13 15 16 16 16 16 16 17 18 18 16 15 17 17 17 17 17 18 19 19 19 18 17 15 14 14 14 12 12 12 12 13 15 14 13 13 13 15 14 12 13 14 15 16 16 14 12 13 13 12 11 10 11 13 12 12 12 11 11 12 13 13 12 11 11
8 6 5 7 6 6 6 4 5 5 3 2 4 4 3 7 9 6 4 4 5 6 6 6 5 5 6 6 6 6 8 11 13 14 15 15 15 14 15 16 18 19 16 16 18 18 18 17 17 18 19 20 20 18 18 17 15 15 14 13 13 13 12 13 15 15 14 14 13 14 14 12 13 14 16 18 18 16 15 16 17 16 15 14 15 15 14 13 13 12 12 11 11 12 13 13 13
8 7 6 7 5 5 7 4 3 3 4 5 5 5 4 6 8 5 4 5 6 6 6 6 5 5 6 6 6 6 7 10 12 13 14 15 15 14 15 16 18 19 18 17 18 19 18 18 18 17 18 20 20 19 19 18 17 16 15 14 14 14 13 13 16 16 15 14 12 14 13 12 13 12 14 19 21 20 19 19 19 19 18 18 18 18 17 16 16 15 15 14 13 12 13 13 14
7 8 7 8 8 6 6 4 2 1 5 8 7 5 4 4 7 5 4 5 5 6 6 6 7 6 6 6 6 6 7 8 10 13 15 15 15 14 14 15 16 17 17 16 17 19 19 19 19 18 17 18 19 19 19 19 18 17 16 14 14 14 14 15 16 17 17 15 12 13 13 13 14 13 12 16 21 22 22 21 20 20 20 20 20 20 20 19 19 18 18 18 17 14 13 14 14
7 7 6 7 10 7 5 4 3 4 4 7 9 7 8 3 7 7 6 5 5 4 5 5 6 6 6 6 6 7 7 7 9 12 15 16 15 14 13 13 14 15 16 16 16 18 18 19 20 19 18 17 17 17 18 18 17 17 16 15 15 15 16 16 16 16 19 19 15 13 13 13 12 12 12 12 16 20 22 22 22 22 22 22 22 22 22 22 21 21 20 20 21 19 16 13 13
9 8 5 6 8 9 6 4 5 7 5 6 9 10 12 9 6 7 8 7 5 4 4 4 5 6 6 6 6 7 7 8 9 10 12 14 14 13 13 13 14 15 15 16 17 17 17 18 18 19 19 18 17 16 16 16 16 16 16 15 16 16 16 16 17 18 19 21 21 18 16 15 14 14 15 14 14 16 19 22 23 24 25 24 24 23 23 23 23 23 23 21 20 21 20 16 12
12 11 7 6 8 7 5 5 4 5 6 8 11 10 11 12 10 8 8 9 6 5 5 5 5 6 6 7 7 7 7 8 7 6 8 10 11 11 12 12 14 15 15 16 17 17 18 18 17 18 20 19 17 16 16 16 16 17 17 17 17 17 16 16 18 20 21 23 25 24 22 22 20 20 21 17 15 18 20 22 23 24 26 27 26 25 25 25 26 26 25 24 21 19 22 21 16
13 11 7 6 7 6 5 7 3 2 4 8 11 11 11 12 11 9 8 8 7 8 8 7 8 8 7 8 8 7 8 5 5 7 7 8 9 11 12 12 13 14 15 16 18 19 19 19 19 19 19 19 19 18 17 18 17 17 17 18 18 17 17 17 18 20 22 23 25 26 26 26 25 23 22 19 18 21 21 22 25 26 27 28 27 27 28 27 27 27 26 25 23 19 18 21 21
12 10 8 7 6 4 5 5 4 1 3 6 7 9 12 12 11 11 9 9 9 9 10 10 10 10 9 9 9 7 6 3 5 5 7 9 10 11 12 13 14 14 16 17 19 20 20 19 20 20 18 18 20 19 18 17 17 16 15 16 16 15 15 16 16 16 18 20 21 22 23 23 23 22 23 24 23 23 22 24 28 29 29 30 28 27 29 29 29 29 26 23 23 22 20 21 23
8 7 8 6 5 5 5 4 4 2 3 2 3 6 10 11 11 11 11 11 10 7 6 6 7 8 8 7 6 6 5 3 3 5 7 10 10 10 11 12 14 15 14 16 18 19 19 20 21 19 18 19 19 19 18 16 15 15 13 12 12 13 13 14 14 14 15 16 17 19 19 19 20 20 22 24 24 24 24 27 30 30 31 31 30 29 31 32 31 31 30 26 24 23 23 24 26
6 6 7 6 7 6 2 4 5 2 2 2 2 5 8 9 10 12 10 7 4 2 2 3 4 6 6 4 2 3 5 4 4 5 6 8 9 10 10 11 13 14 14 15 16 18 18 19 19 18 18 18 17 17 18 16 13 13 13 12 11 11 11 11 12 13 14 15 15 16 18 20 22 23 22 22 23 23 23 24 25 26 28 29 30 30 31 32 32 31 31 30 27 25 26 28 29
4 5 7 5 9 6 2 6 7 2 2 2 4 5 7 8 11 11 5 2 2 3 3 6 6 6 5 4 4 5 6 5 5 5 5 6 7 8 9 10 11 14 15 15 15 16 16 16 16 16 16 16 15 15 16 15 13 11 12 12 12 12 12 11 12 13 14 15 17 17 17 17 19 22 23 23 24 24 23 24 24 24 25 25 26 28 29 30 31 31 30 29 30 30 29 28 26
3 4 3 4 9 8 8 9 7 2 4 3 2 5 5 5 10 10 4 3 5 5 5 7 6 5 5 5 5 5 5 5 5 5 5 5 6 7 7 8 11 12 12 14 15 14 12 11 13 13 13 13 13 13 14 14 13 12 13 13 13 13 14 14 14 14 13 14 18 18 17 16 17 20 21 22 24 25 25 26 26 26 26 25 25 27 29 28 27 28 29 29 30 32 31 27 22
5 2 1 4 8 10 10 10 6 2 2 2 1 5 3 2 6 7 5 4 6 5 5 7 5 4 4 4 4 3 3 4 4 5 5 5 6 7 7 7 8 9 10 13 15 14 13 11 11 12 12 11 11 12 13 13 13 12 13 14 13 13 14 13 12 12 12 12 13 13 14 15 16 17 18 19 21 23 23 24 26 27 29 28 28 29 30 30 29 28 28 29 30 31 29 27 25
3 0 1 6 8 9 10 9 6 1 2 2 2 4 4 3 3 5 6 5 6 7 7 6 4 4 3 2 2 1 2 2 2 3 3 4 4 5 5 5 5 6 9 11 12 13 14 12 11 11 11 10 10 12 13 13 12 12 13 13 13 13 13 11 10 10 10 11 11 11 12 12 13 14 15 16 17 19 21 22 23 25 27 28 28 29 31 31 31 30 28 29 30 31 30 30 31
1 2 0 5 6 8 9 6 4 1 1 4 5 3 4 5 3 5 5 5 8 9 8 6 5 4 3 1 1 1 1 1 1 1 2 3 3 3 3 4 4 4 6 8 9 10 11 11 10 10 10 9 9 11 13 13 12 11 11 12 12 11 11 10 9 9 9 9 10 11 11 12 13 13 14 16 16 17 20 22 22 22 24 25 27 29 30 30 30 29 29 29 30 31 32 32 32
3 3 4 7 5 6 6 4 3 2 3 5 4 4 4 5 5 5 5 5 7 9 7 5 4 3 2 2 2 2 2 2 1 1 2 3 4 4 5 5 5 6 6 7 8 9 10 10 9 9 9 8 9 10 11 11 11 10 10 10 10 10 9 8 8 9 10 11 11 12 12 12 13 14 14 15 16 17 19 21 22 22 23 25 26 26 27 28 29 29 29 30 30 31 31 31 32
8 7 8 8 6 5 3 2 2 3 5 3 2 1 3 3 4 5 4 1 2 5 7 5 4 4 3 3 2 2 3 3 2 3 4 5 6 6 7 7 7 8 8 8 8 9 10 10 10 10 10 9 9 9 10 10 10 9 9 9 9 8 8 7 8 9 10 11 11 12 12 12 12 13 14 14 15 16 17 18 20 22 23 24 24 24 25 27 28 29 30 31 32 31 32 33 34
6 6 8 7 5 4 3 3 3 5 4 1 2 1 2 5 4 1 2 2 2 2 6 7 7 6 4 3 3 3 3 3 4 4 5 6 7 7 8 9 9 9 9 9 9 10 11 11 11 10 10 9 8 8 9 9 9 8 8 8 8 8 8 8 8 8 8 9 10 10 10 11 11 12 12 13 14 14 15 17 19 20 22 22 23 23 24 25 25 26 27 28 29 30 32 33 33
3 6 8 6 5 5 5 5 5 5 2 2 1 0 3 6 6 4 1 3 3 2 4 6 7 7 5 4 4 3 3 4 4 5 5 6 7 8 9 10 10 9 9 10 11 11 11 11 10 10 10 9 9 9 8 8 7 7 6 6 6 6 7 7 7 7 8 8 8 9 9 10 10 11 11 12 13 14 14 15 17 19 20 20 21 22 23 23 23 24 25 27 28 29 31 31 32
7 9 8 6 6 5 6 6 4 3 1 2 1 1 3 5 6 6 4 6 7 5 6 5 5 6 6 5 5 4 4 4 5 5 5 5 6 8 9 9 9 9 10 11 12 12 11 10 10 11 11 9 9 9 8 7 6 6 5 5 5 5 5 5 6 6 6 7 7 8 9 10 10 10 11 11 12 12 13 13 15 16 18 19 21 22 23 23 24 24 25 27 28 27 27 28 30
5 3 4 6 5 4 5 5 4 3 3 2 2 2 3 3 1 1 2 4 8 6 5 5 4 5 5 5 5 5 5 5 5 5 5 6 7 8 8 8 9 9 9 10 11 11 11 10 10 11 11 10 9 8 7 7 5 4 4 3 3 3 3 3 4 5 6 6 7 8 8 9 10 10 10 11 11 11 12 13 14 15 17 18 19 20 21 22 22 23 24 25 25 24 24 26 27
3 1 1 4 2 1 2 0 1 2 1 3 4 3 4 2 3 5 3 3 6 5 4 4 5 5 6 6 6 6 6 5 5 5 5 6 6 7 7 8 8 9 12 13 13 13 13 12 12 11 11 10 9 8 7 6 5 3 2 1 2 3 4 4 5 6 7 8 8 9 8 8 9 10 10 10 10 10 11 12 13 14 15 16 16 17 18 19 19 21 23 23 24 24 24 25 25
3 2 3 2 2 3 3 2 2 1 3 3 4 4 3 2 4 7 7 6 6 5 4 6 7 8 8 7 6 6 6 5 5 5 5 5 6 6 7 7 7 9 12 14 14 15 15 14 13 12 11 10 9 8 7 6 5 3 2 2 3 4 5 6 6 6 7 7 8 8 8 8 8 9 11 11 10 11 11 12 12 13 13 14 15 15 16 17 18 19 20 21 23 23 23 24 24
2 3 4 3 1 1 1 2 2 2 5 2 3 5 4 4 4 4 9 10 8 7 7 7 9 9 9 8 7 7 6 5 5 5 5 5 6 6 7 7 8 9 13 14 14 15 15 14 13 12 11 10 9 8 7 6 5 4 4 4 4 4 5 5 5 4 4 4 4 5 5 7 8 9 10 11 12 12 11 11 12 12 13 13 14 14 15 16 17 18 19 20 22 22 22 24 25
1 1 1 2 2 3 3 3 2 4 5 3 4 6 5 5 4 4 9 13 11 10 9 10 11 11 9 8 8 7 7 6 5 5 5 5 6 6 7 7 8 9 13 14 15 15 15 14 14 13 12 12 11 10 9 8 6 6 5 4 3 2 2 1 1 0 1 1 2 3 4 5 7 8 10 11 12 13 12 12 12 12 13 13 13 14 15 16 17 18 19 20 20 21 22 25 25
1 0 1 0 1 2 3 4 3 3 5 5 4 4 4 6 6 6 10 14 14 13 11 11 12 12 10 9 8 7 7 6 6 5 5 5 6 6 6 7 8 9 12 13 14 14 14 15 14 14 13 13 12 11 11 10 9 8 8 7 6 6 6 6 6 6 6 5 5 5 6 6 7 7 8 9 10 11 12 13 13 13 14 14 14 14 14 15 16 18 19 20 21 21 22 25 26
4 4 5 4 2 0 1 3 2 2 4 5 4 4 3 3 5 6 8 12 14 13 11 10 12 13 11 9 8 7 7 7 6 6 5 6 6 6 6 7 8 10 11 11 12 13 14 14 14 14 14 14 13 13 13 12 12 11 11 10 9 9 9 9 9 9 9 8 8 8 8 8 7 8 9 9 10 10 11 12 13 13 14 14 15 14 14 14 15 16 17 19 20 21 22 24 25
3 4 6 7 5 3 3 4 2 0 3 3 2 4 2 2 0 1 3 4 6 10 11 11 12 14 12 10 9 9 7 7 6 6 6 6 7 7 6 6 7 8 8 9 11 12 12 13 14 14 15 15 15 15 15 15 14 13 13 12 11 11 11 11 11 11 10 10 10 10 9 9 9 9 10 10 11 11 12 12 13 14 14 15 15 16 15 15 16 17 19 19 20 20 21 23 24
Wind_Direction
121 126 127 123 151 260 253 235 243 182 248 249 119 153 122 83 94 136 132 136 141 104 60 79 101 78 20 346 357 23 25 12 5 16 71 116 138 127 123 131 133 131 124 124 131 120 112 116 106 91 89 102 116 113 104 97 99 99 99 104 102 88 81 86 92 92 89 85 86 85 87 89 86 84 82 81 81 79 80 78 76 79 80 79 80 81 81 80 78 78 79 80 82 83 84 84 86
133 232 171 184 199 245 244 218 255 169 219 195 132 126 109 120 168 160 144 128 96 106 107 106 132 129 352 332 313 347 50 39 41 70 90 128 133 120 128 135 136 134 125 124 128 123 122 122 109 102 91 97 121 120 107 99 100 102 104 105 102 93 89 90 91 88 87 86 88 88 88 91 88 85 84 82 82 81 80 77 77 81 81 81 82 82 81 80 79 79 80 80 82 83 85 84 85
204 236 207 222 211 235 242 214 253 196 212 173 127 109 121 153 167 133 108 90 89 114 119 107 151 159 260 255 343 357 72 62 75 90 110 136 133 127 136 137 137 135 128 127 130 130 132 138 120 106 98 103 125 126 115 106 101 104 108 104 98 100 102 97 91 89 87 87 84 81 81 86 89 89 86 85 84 81 82 82 80 83 83 82 83 84 82 80 78 79 80 80 82 83 84 84 86
169 224 218 245 220 222 232 214 255 236 216 139 124 125 145 164 134 99 86 88 100 130 139 151 171 130 284 327 20 10 94 80 80 98 127 139 132 135 139 138 137 134 131 130 134 134 136 147 121 105 102 107 125 130 127 117 104 104 108 104 101 101 102 103 105 101 94 90 83 79 78 83 91 93 91 89 87 83 85 86 81 84 84 84 86 86 82 79 77 78 80 82 83 84 85 86 88
163 233 229 260 251 223 244 227 263 246 246 70 121 131 152 152 123 104 99 101 106 139 160 189 170 108 253 344 348 340 93 100 90 107 126 121 125 136 142 141 139 136 135 135 135 130 138 145 117 109 109 110 119 128 133 122 109 107 110 109 106 97 89 96 101 99 93 86 83 79 75 85 98 100 98 93 91 86 85 88 87 87 86 86 86 84 83 80 78 79 83 84 87 87 87 88 89
217 221 224 252 280 313 247 217 222 217 30 12 76 122 147 135 125 120 116 108 100 112 166 205 162 107 172 87 25 27 62 114 108 120 125 122 132 138 142 145 143 139 139 139 134 129 141 141 119 115 114 113 115 126 134 126 114 108 115 111 103 95 85 89 93 90 85 82 79 72 69 88 103 105 102 98 94 89 88 93 92 88 86 89 89 87 84 78 76 79 82 84 86 87 87 88 91
241 201 191 214 215 257 236 222 217 180 51 14 47 114 141 129 129 133 134 130 120 124 192 201 167 258 140 118 121 66 60 88 105 124 124 130 138 139 143 147 146 142 142 139 133 136 145 137 123 118 118 117 115 126 134 131 120 110 121 114 104 101 95 95 87 80 78 79 81 74 79 92 100 104 103 100 94 91 92 94 91 90 92 91 88 85 81 80 80 81 84 85 86 88 87 89 93
251 224 202 218 198 203 242 238 228 88 69 57 66 85 119 134 142 148 153 154 149 153 178 167 200 254 110 136 157 97 101 79 95 119 125 136 140 142 147 149 147 145 143 138 135 144 152 137 124 121 122 121 118 125 135 139 129 118 126 119 109 108 114 110 83 84 83 80 89 91 93 98 101 104 104 102 96 93 94 96 93 93 93 82 79 80 81 83 81 82 86 87 89 89 88 88 94
229 234 222 237 214 193 237 227 171 84 101 103 105 88 98 144 157 159 155 142 142 155 165 162 204 260 109 145 113 115 123 96 117 126 131 140 142 147 150 152 147 146 144 138 138 147 154 138 124 124 127 124 123 125 134 143 139 130 129 126 115 110 115 107 96 103 97 88 103 109 100 103 107 106 107 106 99 95 96 98 93 87 86 82 81 85 85 81 78 85 89 90 93 92 91 90 96
204 221 230 232 221 198 221 207 161 109 115 103 107 133 143 155 169 167 155 137 145 151 135 141 205 255 107 136 112 121 119 117 138 134 138 143 145 150 154 154 147 148 148 141 140 145 150 139 128 129 134 131 128 128 134 144 145 139 135 134 123 118 111 104 111 108 106 105 112 115 104 104 112 112 108 109 107 99 99 98 92 89 90 86 84 86 85 79 77 86 91 96 98 96 97 93 99
200 206 244 231 215 208 211 185 158 117 119 123 114 132 153 162 182 171 148 133 150 149 132 162 202 213 227 118 99 105 111 132 146 140 143 146 150 155 156 156 152 154 151 146 144 146 150 142 134 134 141 138 132 132 137 145 147 143 142 142 136 132 120 111 119 108 116 124 114 115 110 101 108 119 110 111 122 107 99 99 95 92 91 88 87 88 84 79 78 86 95 101 101 100 103 100 97
218 189 204 219 216 211 206 174 149 121 129 150 138 135 154 168 185 171 153 143 157 160 157 186 200 169 197 129 105 115 120 140 147 145 145 148 156 159 159 158 157 157 154 152 148 149 154 150 145 145 150 145 139 135 138 144 146 145 146 149 147 144 137 127 125 118 126 127 113 114 112 101 101 122 116 111 128 118 103 102 97 93 95 97 94 91 87 82 82 91 96 100 103 101 103 106 94
239 200 205 217 231 229 129 129 129 128 157 156 138 137 153 172 188 175 158 152 165 174 154 163 99 238 201 106 117 127 130 146 146 147 149 154 160 161 162 162 162 160 161 161 155 155 157 156 158 162 160 155 152 143 141 142 144 148 148 154 154 154 152 142 135 134 139 134 123 118 114 102 98 123 127 119 126 124 117 111 105 96 98 106 100 95 93 88 89 96 95 96 101 99 98 94 75
261 239 231 216 164 249 177 157 143 168 167 127 121 137 158 175 202 188 165 162 159 133 102 105 134 219 191 124 151 145 144 153 148 149 153 158 161 165 165 163 165 165 167 168 164 162 162 159 162 173 167 159 159 151 150 147 146 149 146 156 161 162 156 147 144 140 141 143 137 129 117 96 98 127 142 131 130 131 120 119 116 103 92 98 102 102 97 86 86 97 98 99 101 97 92 80 71
268 266 254 217 175 207 195 198 171 202 152 121 132 145 162 160 292 211 170 157 117 86 103 99 322 239 157 135 157 143 146 151 151 152 155 160 164 168 167 165 168 171 172 172 173 170 169 165 163 171 164 160 162 157 164 159 151 150 146 154 166 168 160 153 149 140 139 143 140 133 112 96 101 126 152 146 139 144 128 123 129 120 109 104 106 105 97 77 81 103 108 112 111 103 97 96 94
260 264 235 215 205 202 185 178 186 214 138 124 141 149 163 148 202 220 27 6 107 118 165 142 161 321 16 38 53 120 140 146 152 155 158 163 166 169 171 172 173 176 178 178 181 179 177 172 168 170 162 163 165 160 169 170 158 153 151 155 168 172 168 164 154 151 153 149 147 130 100 106 107 114 146 161 155 157 146 135 141 144 136 127 122 114 108 75 80 115 122 135 139 133 125 117 116
267 247 220 210 204 198 174 175 178 156 120 123 145 162 168 148 176 214 38 297 139 145 176 114 125 27 48 73 78 115 135 143 150 157 162 166 171 173 175 177 177 180 183 185 186 184 184 181 177 174 168 169 169 165 166 174 171 162 163 164 169 174 176 178 169 167 168 175 169 119 99 115 118 112 129 162 174 177 172 159 153 161 164 160 153 140 144 89 91 125 136 147 152 152 119 104 121
232 220 209 211 200 185 168 172 151 115 136 139 157 177 181 155 165 159 160 214 152 150 162 126 133 115 83 100 119 127 138 146 154 163 167 171 177 178 179 181 184 184 185 188 190 189 188 187 186 182 177 176 174 172 167 176 181 170 173 180 179 178 182 185 184 185 180 189 173 126 123 140 136 130 133 148 175 186 188 194 183 176 183 189 188 180 175 123 129 141 138 134 136 125 94 86 77
224 224 206 211 184 125 104 129 91 56 144 143 160 183 197 161 156 165 189 182 167 171 167 166 170 150 119 123 142 144 149 154 161 170 172 177 182 184 184 184 187 188 186 188 191 192 190 190 191 189 185 182 179 178 174 178 185 177 178 190 191 191 190 183 190 197 187 190 180 155 158 167 149 152 166 160 177 189 185 208 214 210 211 216 211 202 196 164 160 150 127 126 123 106 94 106 108
226 231 211 182 117 100 68 87 84 34 113 144 158 171 185 150 145 167 201 177 179 194 173 177 189 173 152 144 150 153 161 165 169 176 179 183 186 188 189 187 188 189 188 187 189 192 193 192 192 193 191 186 184 184 182 181 186 185 184 191 193 198 199 186 192 200 191 193 186 174 182 178 161 180 203 170 170 195 202 221 228 235 230 241 227 197 207 187 181 192 152 134 112 100 104 168 198
200 208 235 99 112 125 93 78 85 44 37 147 147 159 173 143 148 180 194 179 186 206 182 178 197 178 158 151 158 163 169 172 177 184 185 187 189 191 192 190 190 188 186 187 189 192 194 195 193 194 193 189 189 189 190 189 190 191 192 196 194 198 203 194 198 201 200 202 190 179 195 190 169 186 211 158 144 175 195 213 217 192 188 210 168 149 202 198 187 240 179 137 108 139 192 203 205
193 159 7 49 85 120 103 80 79 49 13 139 144 164 161 136 168 195 209 211 160 135 116 108 133 159 155 154 160 167 174 178 184 191 191 191 192 192 194 191 190 188 186 188 193 194 196 197 195 195 195 194 194 193 196 195 194 197 198 200 198 202 205 203 203 202 208 210 195 186 198 195 178 183 189 169 166 179 182 180 181 175 176 191 175 169 197 196 194 216 199 168 187 215 215 213 217
211 159 83 46 28 73 101 88 76 48 126 152 152 149 139 159 185 193 229 243 76 65 60 66 45 120 149 153 159 169 179 183 189 195 196 195 194 195 195 191 189 189 189 192 196 196 197 198 197 197 196 197 197 197 200 200 199 202 203 204 203 205 208 210 210 205 210 214 204 196 197 195 188 192 191 186 186 186 188 188 187 186 188 193 188 193 202 203 207 209 210 212 216 221 223 226 229
233 153 121 72 45 65 77 84 102 70 120 133 121 133 160 189 184 146 237 238 102 90 65 74 81 122 148 154 164 176 182 188 193 197 199 200 199 198 197 196 191 189 193 196 197 198 198 199 199 199 199 200 200 201 203 204 204 205 205 206 207 209 211 214 218 214 211 216 214 205 197 198 199 200 200 198 195 193 197 193 192 195 195 199 197 203 211 210 210 213 218 221 225 231 233 234 237
222 136 123 106 73 80 79 99 123 111 91 95 133 167 163 175 57 154 231 214 120 114 92 98 115 140 161 167 173 179 184 191 195 197 201 205 204 202 203 202 198 195 198 200 200 201 199 199 200 201 202 202 203 204 206 208 208 209 208 208 209 211 214 216 220 221 221 222 223 217 206 201 204 207 205 204 202 199 200 199 198 201 200 207 207 207 215 215 213 217 220 224 228 231 237 240 239
174 131 123 119 103 97 101 115 123 126 118 144 172 169 108 59 333 251 216 161 106 125 142 140 152 163 174 179 182 185 188 192 194 196 199 203 205 205 206 206 208 205 202 204 204 204 201 200 202 203 204 204 206 206 209 211 210 211 211 210 212 213 215 218 221 223 226 226 227 228 220 210 207 212 211 208 208 203 203 208 206 206 208 213 215 213 217 217 218 222 223 226 229 229 235 239 238
122 123 114 111 108 103 112 117 121 131 122 173 187 157 126 101 268 240 161 96 92 169 173 168 190 196 190 188 189 191 194 194 193 194 195 199 203 205 206 206 211 210 204 205 205 206 204 203 204 205 206 205 206 209 212 213 213 214 213 214 216 216 218 218 221 225 227 227 229 234 230 222 216 214 216 211 210 209 208 213 213 210 211 216 220 216 220 222 219 224 226 225 228 232 236 237 238
127 125 107 106 113 109 113 119 128 150 127 225 236 149 141 131 222 222 112 90 124 196 189 180 202 209 200 194 192 193 198 196 192 193 195 197 200 202 204 204 207 208 206 205 203 204 205 205 206 206 207 207 208 210 212 215 215 217 216 218 219 219 220 217 221 225 226 229 229 232 232 228 223 219 220 216 213 212 211 214 214 215 215 220 227 223 230 238 229 225 231 231 230 231 235 238 238
143 141 123 127 137 127 124 122 138 211 134 193 273 185 197 197 211 159 119 126 124 186 201 182 199 204 200 195 189 194 196 192 190 197 200 200 201 200 202 203 202 203 206 205 201 201 204 205 208 208 208 209 211 211 213 216 217 219 218 219 220 220 224 222 220 223 227 229 230 231 229 227 227 224 223 226 226 221 218 221 219 221 222 219 229 239 246 251 244 236 242 247 243 237 237 238 239
160 164 147 146 167 159 143 134 159 172 118 178 247 239 221 194 186 129 122 160 154 202 210 189 199 191 195 196 194 200 194 193 195 201 203 202 202 201 202 201 199 199 200 201 200 200 202 203 206 208 210 210 212 214 214 217 218 220 221 220 222 222 226 229 224 224 227 227 228 230 229 226 227 227 226 232 238 232 225 233 234 234 235 226 232 248 256 257 251 242 242 250 249 242 238 235 238
167 159 169 172 193 165 136 140 173 167 134 203 225 253 249 151 143 119 130 180 185 213 211 195 199 186 194 194 199 205 196 202 204 205 204 202 203 201 202 200 197 196 194 196 198 199 200 200 202 206 210 211 213 215 215 218 219 220 222 222 224 223 226 232 233 230 227 228 228 229 230 227 226 230 229 231 238 237 232 239 244 245 244 239 242 252 257 253 250 244 236 237 239 239 239 236 235
172 164 187 192 199 151 130 140 179 173 151 191 209 241 247 131 121 119 140 184 196 217 216 200 199 193 195 193 203 212 205 208 210 211 207 203 204 202 202 200 196 195 194 194 195 196 198 199 200 203 207 209 213 217 218 219 220 221 223 224 225 224 226 231 236 235 229 228 227 228 231 231 230 233 233 232 236 238 237 241 247 251 249 247 250 254 256 252 247 246 242 239 235 232 237 237 235
185 193 190 183 195 166 139 145 176 158 145 190 217 252 253 130 120 141 156 171 181 210 224 214 211 205 201 203 206 208 209 208 210 213 210 205 204 202 200 198 196 195 195 195 192 193 197 199 201 203 205 207 211 217 219 220 221 223 224 225 227 227 229 230 234 237 236 234 228 231 239 246 248 244 239 239 241 242 243 243 245 250 252 254 255 253 254 253 248 248 247 247 243 235 235 239 238
182 204 197 176 193 187 162 148 159 184 184 205 211 235 255 197 129 152 167 167 167 194 222 222 218 210 208 210 207 209 213 209 210 213 211 207 204 202 201 198 198 197 198 198 195 195 197 200 203 205 207 207 210 214 218 221 223 225 226 228 230 231 232 233 235 237 240 241 233 232 244 255 258 248 239 240 243 247 249 249 249 251 255 257 255 251 254 255 250 248 247 246 247 245 241 239 241
172 186 188 166 190 206 196 150 149 181 204 220 207 220 246 239 181 171 172 173 186 204 217 229 223 218 217 214 215 215 212 215 219 214 204 199 199 200 200 199 198 199 201 201 201 199 199 203 205 208 209 208 210 212 215 220 222 225 227 229 231 233 233 233 236 237 238 241 239 240 246 250 252 249 249 251 248 249 252 255 254 252 253 254 252 249 250 251 248 247 245 244 247 250 247 240 241
171 179 190 177 184 202 170 108 117 184 195 215 221 227 242 242 231 216 188 178 203 229 231 236 234 234 231 225 224 218 219 223 207 176 165 174 186 191 193 197 199 202 204 203 204 203 203 204 205 208 211 208 208 209 211 214 217 221 223 226 230 231 232 233 237 239 240 242 245 250 254 253 251 247 248 253 257 258 257 258 256 252 251 251 250 248 245 246 247 247 248 247 244 246 250 247 242
176 182 198 188 181 179 120 98 100 198 212 216 225 239 249 251 248 242 224 200 212 231 232 234 233 234 234 232 231 224 226 212 140 141 159 174 186 189 192 195 196 201 205 205 204 205 206 205 205 209 209 206 206 206 208 210 212 215 218 223 228 230 231 232 236 240 242 245 249 252 251 249 246 241 240 247 260 263 257 252 252 252 252 250 247 246 245 245 247 249 250 251 247 241 248 252 247
179 184 190 191 186 158 93 90 110 123 245 219 214 245 253 254 255 251 243 229 228 235 235 233 231 231 231 232 233 227 223 182 139 167 179 181 186 190 198 198 197 200 204 205 205 207 207 206 208 210 207 206 207 206 207 208 210 212 214 221 226 229 230 230 234 238 240 245 248 247 244 243 244 245 246 250 256 259 255 252 251 251 252 251 249 248 248 249 251 252 250 249 250 246 244 248 249
179 182 190 195 162 130 96 94 112 123 248 214 181 253 258 255 256 251 242 234 233 234 232 234 235 232 227 225 224 217 213 203 200 197 177 175 179 182 192 197 199 201 201 204 205 205 205 206 210 210 207 207 208 207 206 208 210 211 215 220 224 228 231 232 235 237 239 242 243 242 242 243 246 251 253 252 254 256 255 256 257 255 255 256 257 256 255 255 254 254 253 249 248 250 248 248 250
188 183 194 191 151 158 185 147 132 126 245 321 338 281 268 259 256 250 238 229 225 203 206 242 242 237 237 241 255 237 234 240 232 219 195 182 178 183 192 194 197 199 198 200 200 201 203 206 208 206 206 207 207 207 206 206 208 211 218 224 226 230 235 238 238 237 238 239 239 243 244 245 247 248 247 244 250 258 259 259 261 261 260 260 260 258 256 255 255 254 252 248 245 246 249 251 253
197 200 205 185 156 152 62 129 136 125 193 282 310 284 269 246 241 241 213 135 202 202 216 233 224 219 232 254 263 243 241 249 241 235 219 193 189 196 196 193 196 199 201 201 198 198 201 204 204 202 203 204 205 206 204 204 205 208 215 222 226 231 236 237 236 235 237 237 239 242 246 249 250 250 248 243 246 253 255 256 255 256 258 256 254 253 252 254 256 254 250 247 246 244 246 250 252
178 216 226 177 163 136 99 129 142 173 205 196 242 259 264 221 224 227 177 145 200 187 205 222 207 193 203 222 226 214 218 229 232 234 227 214 213 209 196 195 203 205 206 207 203 200 199 198 198 195 196 198 201 201 199 198 201 204 210 214 218 224 230 231 232 236 240 242 243 245 248 251 250 253 255 253 252 252 252 252 251 252 255 251 245 246 249 251 254 254 252 251 251 249 248 248 249
175 189 36 127 153 135 128 152 165 205 207 123 196 244 255 192 206 203 172 187 195 177 199 207 194 194 196 204 206 195 207 209 215 222 220 216 212 204 198 193 198 201 203 210 210 205 200 194 188 187 187 189 191 192 192 192 195 202 209 214 217 221 228 233 235 240 245 249 251 250 252 253 252 253 256 256 255 257 258 257 258 260 260 256 251 251 253 256 259 258 256 256 257 254 248 245 247
164 41 9 141 149 146 149 167 187 199 96 110 209 242 267 260 206 153 153 193 201 199 203 189 184 197 189 189 184 178 208 200 203 202 190 192 190 187 183 169 170 188 200 209 210 207 204 196 185 180 177 177 179 180 184 186 190 199 207 214 219 223 230 236 240 243 247 251 253 252 253 256 255 255 258 258 257 260 262 261 262 262 259 259 259 259 261 262 263 261 258 257 257 255 248 245 246
86 339 297 131 142 154 161 175 184 106 142 197 187 184 247 253 205 138 157 209 216 209 201 187 180 172 167 162 125 117 148 154 200 174 143 146 145 138 136 126 128 163 181 187 188 191 191 184 177 172 167 166 170 173 178 183 187 193 203 212 217 224 231 239 245 248 251 254 256 257 258 260 260 259 261 263 262 262 264 265 265 262 261 262 261 259 259 258 256 256 255 254 254 254 251 246 244
151 177 106 94 110 129 151 184 161 143 235 222 166 173 250 256 214 179 176 217 222 205 188 176 163 143 144 126 107 112 122 121 119 110 104 102 106 107 108 107 107 123 139 150 163 171 169 162 155 150 150 151 158 166 171 177 185 191 199 208 214 221 229 239 246 250 255 256 257 259 259 262 263 261 262 263 263 263 265 267 268 269 269 269 266 260 258 257 257 260 261 260 256 253 251 247 246
147 158 117 103 110 114 129 167 154 193 224 214 108 132 282 271 230 194 178 231 225 180 165 158 151 143 135 115 111 115 108 110 110 100 95 94 97 104 106 103 101 106 113 119 129 142 147 144 140 141 145 145 144 151 159 168 181 189 196 203 211 219 227 238 247 252 259 260 259 260 261 263 263 262 264 263 263 264 266 266 266 269 271 271 271 269 268 269 269 270 269 264 259 254 254 254 252
148 154 135 124 119 136 162 155 192 224 220 158 50 359 259 243 231 157 85 49 48 151 166 163 157 143 129 117 108 98 96 107 112 107 105 107 104 105 103 99 97 97 97 102 109 120 129 131 135 139 140 138 137 141 153 165 176 183 190 197 205 216 225 234 244 251 260 263 263 266 268 270 270 270 269 267 266 264 265 265 263 265 270 271 271 270 271 273 273 272 270 263 259 257 257 255 252
179 162 154 157 153 168 194 181 198 224 197 103 77 333 243 245 244 250 246 145 127 103 130 144 147 139 126 115 104 98 101 108 114 113 110 110 104 102 101 97 93 89 88 97 105 110 115 117 121 125 123 127 136 142 152 163 172 179 183 191 200 213 223 230 242 251 258 263 267 271 272 274 277 277 274 273 273 271 271 271 267 265 267 268 268 268 269 271 272 274 273 267 262 259 256 252 250
187 174 174 187 172 175 199 189 198 222 137 105 188 222 243 257 256 262 250 163 137 101 86 87 106 120 116 110 108 108 110 104 107 107 102 100 97 96 96 92 90 88 89 97 104 108 107 106 112 118 119 126 135 142 152 159 166 174 179 189 197 206 217 225 237 246 252 259 264 269 272 275 278 279 279 279 280 280 278 275 271 267 266 266 267 268 270 272 272 273 274 270 266 265 263 258 256
188 185 194 202 191 194 203 195 199 186 111 120 188 211 226 231 134 57 2 106 116 101 88 84 90 102 104 110 116 117 117 108 99 97 91 87 86 88 89 89 89 89 94 98 101 105 104 103 111 115 117 120 124 129 134 137 145 157 169 188 199 211 229 236 247 254 261 266 264 266 269 274 277 280 282 284 285 285 283 278 274 271 269 269 269 269 270 271 271 271 272 272 271 272 271 269 267
184 354 238 220 219 149 141 124 120 114 97 159 186 229 254 259 141 132 100 95 117 111 111 128 130 129 129 130 132 130 124 116 105 98 92 81 78 79 81 84 83 89 101 105 106 109 109 109 113 113 114 116 117 119 119 122 129 132 142 196 233 255 267 270 270 272 277 281 280 276 274 272 273 277 279 281 283 283 283 282 280 277 276 274 271 269 269 269 268 269 271 272 272 273 273 271 269
174 174 191 198 27 72 123 141 77 39 262 190 167 233 256 253 210 158 141 149 149 139 149 159 150 148 151 146 141 139 133 126 115 106 99 88 79 73 70 74 76 87 101 105 108 112 113 112 114 114 115 118 120 123 127 132 140 151 173 211 233 247 256 258 261 266 275 282 287 286 285 283 279 279 280 281 284 284 282 281 281 281 280 278 277 275 273 272 270 270 269 269 270 271 271 269 268
158 175 172 139 54 25 179 209 133 197 242 199 162 225 227 209 218 149 149 171 175 169 169 163 157 159 159 153 149 144 133 124 113 105 99 90 84 79 75 76 77 90 102 106 110 115 116 116 116 117 117 119 123 127 132 139 149 164 178 199 218 230 239 244 251 260 270 275 283 286 285 288 288 289 291 293 297 297 294 290 288 287 285 283 281 278 276 275 272 271 271 270 270 271 270 269 269
9 235 179 127 197 213 194 207 202 200 230 237 190 212 234 222 205 149 169 182 182 179 173 162 163 168 164 158 153 140 131 127 123 118 105 93 90 85 86 88 86 96 105 107 109 112 115 115 114 116 116 117 120 121 123 127 132 138 140 147 150 150 160 159 143 85 27 5 344 328 314 311 308 304 302 302 304 305 304 302 299 295 293 290 287 283 279 277 274 271 273 275 274 274 273 273 272
52 257 192 48 261 229 195 207 229 222 225 237 206 192 227 225 208 185 183 187 185 178 171 168 170 172 169 160 152 146 147 148 139 132 119 106 103 94 94 98 98 104 108 108 110 111 111 111 110 111 111 112 115 115 113 112 109 107 102 100 96 93 93 85 75 71 63 50 36 22 9 355 341 330 324 321 319 318 315 311 305 300 297 295 295 294 290 287 283 279 278 278 279 278 277 278 278
171 179 177 183 188 101 251 224 228 246 231 233 229 227 223 190 205 204 188 189 188 173 166 170 170 171 168 156 154 157 156 153 142 134 128 119 116 109 102 102 104 109 109 107 109 109 109 110 110 112 112 113 114 112 111 107 102 100 96 93 91 89 88 83 76 70 64 56 47 39 30 21 11 2 355 349 345 340 332 326 319 313 309 306 302 299 296 292 290 288 286 285 285 284 283 282 282
189 194 189 193 177 150 200 211 176 256 255 249 245 254 254 93 127 232 145 161 178 164 162 165 166 168 163 155 160 162 155 151 142 134 130 125 124 119 112 108 106 104 101 101 106 107 109 110 110 113 114 114 113 111 109 106 103 102 99 95 92 89 87 86 82 75 69 62 54 45 37 31 24 16 7 2 357 351 344 339 333 328 324 320 314 308 302 297 292 291 291 290 290 288 287 286 284